Home   Weather   Fort Wayne   Past weeks

Flag for USA Past Weather in Fort Wayne, Indiana, USA — Yesterday and Last 2 Weeks

Now
54 °F

Passing clouds.


Feels Like: 51 °F
Forecast: 51 / 73 °F
Wind: 9 mph from Southeast

Location: Fort Wayne International Airport

Current Time: Apr 25, 2017 at 2:58:28 am

Latest Report: Apr 25, 2017 at 1:54 am


Visibility: 10 mi

Pressure: 29.81 "Hg

Humidity: 74%

Dew Point: 46 °F

Location of Fort WayneLocation

Past Weather in Fort Wayne — Graph

°F

Fort Wayne Temperature Yesterday

Maximum temperature yesterday: 72 °F (at 3:54 pm)
Minimum temperature yesterday: 41 °F (at 5:54 am)
Average temperature yesterday: 57 °F

High & Low Weather Summary for the Past Weeks

 TemperatureHumidityPressure
High81 °F (Apr 15, 2:54 pm)96% (Apr 11, 4:54 am)30.40 "Hg (Apr 11, 4:54 am)
Low37 °F (Apr 12, 5:54 am)24% (Apr 23, 3:54 pm)29.80 "Hg (Apr 20, 4:40 pm)
Average58 °F62%30.09 "Hg
* Reported Apr 10 12:54 am — Apr 25 12:54 am, Fort Wayne, Weather by CustomWeather, © 2017

Note: Actual official high and low records may vary slightly from our data, if they occured in-between our weather recording intervals... More about our weather records

Advertising

Fort Wayne Weather History for the Previous 24 Hours

Scroll right to see more
 ConditionsComfort  
Time TempWeatherWind HumidityBarometerVisibility
12:54 am
Tue, Apr 25
52 °FPassing clouds.8 mph69%29.81 "Hg10 mi
11:54 pm
Mon, Apr 24
53 °FPassing clouds.9 mph64%29.82 "Hg10 mi
10:54 pm56 °FPassing clouds.13 mph53%29.83 "Hg10 mi
9:54 pm59 °FPassing clouds.14 mph44%29.83 "Hg10 mi
8:54 pm62 °FPassing clouds.14 mph38%29.83 "Hg10 mi
7:54 pm65 °FScattered clouds.16 mph34%29.83 "Hg10 mi
6:54 pm68 °FScattered clouds.17 mph35%29.84 "Hg10 mi
5:54 pm70 °FPartly sunny.17 mph32%29.86 "Hg10 mi
4:54 pm72 °FPartly sunny.17 mph27%29.88 "Hg10 mi
3:54 pm72 °FScattered clouds.20 mph26%29.89 "Hg10 mi
2:54 pm71 °FScattered clouds.17 mph27%29.92 "Hg10 mi
1:54 pm70 °FPartly sunny.16 mph34%29.96 "Hg10 mi
12:54 pm66 °FPassing clouds.16 mph36%29.98 "Hg10 mi
11:54 am64 °FPassing clouds.10 mph37%30.00 "Hg10 mi
10:54 am60 °FPassing clouds.12 mph41%30.02 "Hg10 mi
9:54 am56 °FPassing clouds.13 mph44%30.03 "Hg10 mi
8:54 am51 °FPassing clouds.13 mph50%30.03 "Hg10 mi
7:54 am46 °FPassing clouds.9 mph58%30.02 "Hg10 mi
6:54 am41 °FPassing clouds.5 mph62%30.02 "Hg10 mi
5:54 am41 °FPassing clouds.5 mph65%30.02 "Hg10 mi
4:54 am44 °FPassing clouds.5 mph55%30.01 "Hg10 mi
3:54 am44 °FPassing clouds.5 mph55%30.00 "Hg10 mi
2:54 am45 °FPassing clouds.5 mph56%30.01 "Hg10 mi
Weather by CustomWeather, © 2017

See weather overviewHow to use our weather pages